Time,TemperatureF,DewpointF,PressureIn,WindDirection,WindDirectionDegrees,WindSpeedMPH,WindSpeedGustMPH,Humidity,HourlyPrecipIn,Conditions,Clouds,dailyrainin,SoftwareType,DateUTC
2013-02-16 00:00:00,17.4,10.5,30.59,ESE,112,0.0,0.0,74,0.00,,,0.00,WUHU21623XXSP,2013-02-16 05:00:00,
2013-02-16 00:01:00,17.4,10.5,30.59,ESE,112,0.0,0.0,74,0.00,,,0.00,WUHU21623XXSP,2013-02-16 05:01:00,
2013-02-16 00:06:00,17.2,10.3,30.59,ESE,112,0.0,0.0,74,0.00,,,0.00,WUHU21623XXSP,2013-02-16 05:06:00,
2013-02-16 00:11:00,16.9,9.9,30.59,ESE,112,0.0,0.0,74,0.00,,,0.00,WUHU21623XXSP,2013-02-16 05:11:00,
2013-02-16 00:16:00,16.7,9.8,30.59,ESE,112,0.0,0.0,74,0.00,,,0.00,WUHU21623XXSP,2013-02-16 05:16:00,
2013-02-16 00:21:00,16.7,9.8,30.59,ESE,112,0.0,0.0,74,0.00,,,0.00,WUHU21623XXSP,2013-02-16 05:21:00,
2013-02-16 00:23:00,16.5,9.6,30.59,ESE,112,0.0,0.0,74,0.00,,,0.00,WUHU21623XXSP,2013-02-16 05:23:00,
2013-02-16 00:28:00,16.3,9.4,30.59,ESE,112,0.0,0.0,74,0.00,,,0.00,WUHU21623XXSP,2013-02-16 05:28:00,
2013-02-16 00:33:00,16.2,9.6,30.58,ESE,112,0.0,0.0,75,0.00,,,0.00,WUHU21623XXSP,2013-02-16 05:33:00,
2013-02-16 00:38:00,16.0,9.4,30.58,ESE,112,0.0,0.0,75,0.00,,,0.00,WUHU21623XXSP,2013-02-16 05:38:00,
2013-02-16 00:43:00,15.6,9.1,30.59,ESE,112,0.0,0.0,75,0.00,,,0.00,WUHU21623XXSP,2013-02-16 05:43:00,
2013-02-16 00:48:00,15.6,9.1,30.58,ESE,112,0.0,0.0,75,0.00,,,0.00,WUHU21623XXSP,2013-02-16 05:48:00,
2013-02-16 00:53:00,15.4,8.9,30.59,ESE,112,0.0,0.0,75,0.00,,,0.00,WUHU21623XXSP,2013-02-16 05:53:00,
2013-02-16 00:58:00,15.3,9.0,30.58,ESE,112,0.0,0.0,76,0.00,,,0.00,WUHU21623XXSP,2013-02-16 05:58:00,
2013-02-16 01:03:00,15.1,8.8,30.58,ESE,112,0.0,0.0,76,0.00,,,0.00,WUHU21623XXSP,2013-02-16 06:03:00,
2013-02-16 01:08:00,14.9,8.7,30.58,ESE,112,0.0,0.0,76,0.00,,,0.00,WUHU21623XXSP,2013-02-16 06:08:00,
2013-02-16 01:13:00,14.7,8.5,30.59,ESE,112,0.0,0.0,76,0.00,,,0.00,WUHU21623XXSP,2013-02-16 06:13:00,
2013-02-16 01:18:00,14.7,8.5,30.58,ESE,112,0.0,0.0,76,0.00,,,0.00,WUHU21623XXSP,2013-02-16 06:18:00,
2013-02-16 01:23:00,14.5,8.3,30.58,ESE,112,0.0,0.0,76,0.00,,,0.00,WUHU21623XXSP,2013-02-16 06:23:00,
2013-02-16 01:28:00,14.4,8.4,30.58,ESE,112,0.0,0.0,77,0.00,,,0.00,WUHU21623XXSP,2013-02-16 06:28:00,
2013-02-16 01:33:00,14.4,8.4,30.58,ESE,112,0.0,0.0,77,0.00,,,0.00,WUHU21623XXSP,2013-02-16 06:33:00,
2013-02-16 01:38:00,14.2,8.3,30.58,ESE,112,0.0,0.0,77,0.00,,,0.00,WUHU21623XXSP,2013-02-16 06:38:00,
2013-02-16 01:43:00,14.2,8.3,30.57,ESE,112,0.0,0.0,77,0.00,,,0.00,WUHU21623XXSP,2013-02-16 06:43:00,
2013-02-16 01:48:00,14.2,8.3,30.57,ESE,112,0.0,0.0,77,0.00,,,0.00,WUHU21623XXSP,2013-02-16 06:48:00,
2013-02-16 01:53:00,13.8,8.2,30.57,ESE,112,0.0,0.0,78,0.00,,,0.00,WUHU21623XXSP,2013-02-16 06:53:00,
2013-02-16 01:58:00,13.8,8.2,30.56,ESE,112,0.0,0.0,78,0.00,,,0.00,WUHU21623XXSP,2013-02-16 06:58:00,
2013-02-16 02:03:00,13.8,8.2,30.56,ESE,112,0.0,0.0,78,0.00,,,0.00,WUHU21623XXSP,2013-02-16 07:03:00,
2013-02-16 02:08:00,13.6,8.0,30.57,ESE,112,0.0,0.0,78,0.00,,,0.00,WUHU21623XXSP,2013-02-16 07:08:00,
2013-02-16 02:13:00,13.6,8.0,30.56,ESE,112,0.0,0.0,78,0.00,,,0.00,WUHU21623XXSP,2013-02-16 07:13:00,
2013-02-16 02:18:00,13.5,7.8,30.57,ESE,112,0.0,0.0,78,0.00,,,0.00,WUHU21623XXSP,2013-02-16 07:18:00,
2013-02-16 02:23:00,13.3,7.7,30.56,ESE,112,0.0,0.0,78,0.00,,,0.00,WUHU21623XXSP,2013-02-16 07:23:00,
2013-02-16 02:28:00,13.3,7.7,30.56,ESE,112,0.0,0.0,78,0.00,,,0.00,WUHU21623XXSP,2013-02-16 07:28:00,
2013-02-16 02:33:00,13.3,7.7,30.57,ESE,112,0.0,0.0,78,0.00,,,0.00,WUHU21623XXSP,2013-02-16 07:33:00,
2013-02-16 02:38:00,13.3,8.0,30.56,ESE,112,0.0,0.0,79,0.00,,,0.00,WUHU21623XXSP,2013-02-16 07:38:00,
2013-02-16 02:43:00,13.6,8.0,30.56,ESE,112,0.0,0.0,79,0.00,,,0.00,WUHU21623XXSP,2013-02-16 07:43:00,
2013-02-16 02:48:00,13.6,8.3,30.56,ESE,112,0.0,0.0,79,0.00,,,0.00,WUHU21623XXSP,2013-02-16 07:48:00,
2013-02-16 02:53:00,13.8,8.5,30.56,ESE,112,0.0,0.0,79,0.00,,,0.00,WUHU21623XXSP,2013-02-16 07:53:00,
2013-02-16 02:58:00,14.0,9.0,30.56,ESE,112,0.0,0.0,80,0.00,,,0.00,WUHU21623XXSP,2013-02-16 07:58:00,
2013-02-16 03:03:00,14.2,9.1,30.56,ESE,112,0.0,0.0,80,0.00,,,0.00,WUHU21623XXSP,2013-02-16 08:03:00,
2013-02-16 03:09:00,14.4,9.3,30.56,ESE,112,0.0,0.0,80,0.00,,,0.00,WUHU21623XXSP,2013-02-16 08:09:00,
2013-02-16 03:14:00,14.5,9.5,30.56,ESE,112,0.0,0.0,80,0.00,,,0.00,WUHU21623XXSP,2013-02-16 08:14:00,
2013-02-16 03:19:00,14.7,9.7,30.56,ESE,112,0.0,0.0,80,0.00,,,0.00,WUHU21623XXSP,2013-02-16 08:19:00,
2013-02-16 03:24:00,14.7,9.7,30.55,ESE,112,0.0,0.0,80,0.00,,,0.00,WUHU21623XXSP,2013-02-16 08:24:00,
2013-02-16 03:29:00,14.9,9.9,30.55,ESE,112,0.0,0.0,80,0.00,,,0.00,WUHU21623XXSP,2013-02-16 08:29:00,
2013-02-16 03:34:00,14.9,9.9,30.55,ESE,112,0.0,0.0,80,0.00,,,0.00,WUHU21623XXSP,2013-02-16 08:34:00,
2013-02-16 03:39:00,15.1,10.0,30.55,ESE,112,0.0,0.0,80,0.00,,,0.00,WUHU21623XXSP,2013-02-16 08:39:00,
2013-02-16 03:44:00,15.1,10.0,30.55,ESE,112,0.0,0.0,80,0.00,,,0.00,WUHU21623XXSP,2013-02-16 08:44:00,
2013-02-16 03:49:00,15.1,10.0,30.55,ESE,112,0.0,0.0,80,0.00,,,0.00,WUHU21623XXSP,2013-02-16 08:49:00,
2013-02-16 03:54:00,15.4,10.7,30.55,ESE,112,0.0,0.0,81,0.00,,,0.00,WUHU21623XXSP,2013-02-16 08:54:00,
2013-02-16 03:59:00,15.4,10.7,30.55,SSE,157,0.0,0.0,81,0.00,,,0.00,WUHU21623XXSP,2013-02-16 08:59:00,
2013-02-16 04:04:00,15.6,10.8,30.54,SSE,157,0.0,0.0,81,0.00,,,0.00,WUHU21623XXSP,2013-02-16 09:04:00,
2013-02-16 04:09:00,15.6,10.8,30.54,SSE,157,0.0,0.0,81,0.00,,,0.00,WUHU21623XXSP,2013-02-16 09:09:00,
2013-02-16 04:14:00,15.8,11.0,30.54,SSE,157,0.0,0.0,81,0.00,,,0.00,WUHU21623XXSP,2013-02-16 09:14:00,
2013-02-16 04:19:00,16.0,11.4,30.53,SSE,157,0.0,0.0,82,0.00,,,0.00,WUHU21623XXSP,2013-02-16 09:19:00,
2013-02-16 04:24:00,16.0,11.4,30.54,SSE,157,0.0,0.0,82,0.00,,,0.00,WUHU21623XXSP,2013-02-16 09:24:00,
2013-02-16 04:29:00,16.0,11.4,30.54,SSE,157,0.0,0.0,82,0.00,,,0.00,WUHU21623XXSP,2013-02-16 09:29:00,
2013-02-16 04:34:00,16.2,11.6,30.54,SSE,157,0.0,0.0,82,0.00,,,0.00,WUHU21623XXSP,2013-02-16 09:34:00,
2013-02-16 04:39:00,16.2,11.6,30.54,SSE,157,0.0,0.0,82,0.00,,,0.00,WUHU21623XXSP,2013-02-16 09:39:00,
2013-02-16 04:44:00,16.2,11.6,30.54,SSE,157,0.0,0.0,82,0.00,,,0.00,WUHU21623XXSP,2013-02-16 09:44:00,
2013-02-16 04:49:00,16.2,11.6,30.54,SSE,157,0.0,0.0,82,0.00,,,0.00,WUHU21623XXSP,2013-02-16 09:49:00,
2013-02-16 04:54:00,16.2,11.6,30.54,SSE,157,0.0,0.0,82,0.00,,,0.00,WUHU21623XXSP,2013-02-16 09:54:00,
2013-02-16 04:59:00,16.2,11.6,30.54,SSE,157,0.0,0.0,82,0.00,,,0.00,WUHU21623XXSP,2013-02-16 09:59:00,
2013-02-16 05:04:00,16.2,11.6,30.54,SSE,157,0.0,0.0,82,0.00,,,0.00,WUHU21623XXSP,2013-02-16 10:04:00,
2013-02-16 05:09:00,16.3,11.8,30.54,SSE,157,0.0,0.0,82,0.00,,,0.00,WUHU21623XXSP,2013-02-16 10:09:00,
2013-02-16 05:14:00,16.3,11.8,30.54,SSE,157,0.0,0.0,82,0.00,,,0.00,WUHU21623XXSP,2013-02-16 10:14:00,
2013-02-16 05:19:00,16.3,11.8,30.54,SSE,157,0.0,0.0,82,0.00,,,0.00,WUHU21623XXSP,2013-02-16 10:19:00,
2013-02-16 05:24:00,16.5,11.9,30.54,SSE,157,0.0,0.0,82,0.00,,,0.00,WUHU21623XXSP,2013-02-16 10:24:00,
2013-02-16 05:29:00,16.5,11.9,30.54,SSE,157,0.0,0.0,82,0.00,,,0.00,WUHU21623XXSP,2013-02-16 10:29:00,
2013-02-16 05:34:00,16.7,12.1,30.54,SSE,157,0.0,0.0,82,0.00,,,0.00,WUHU21623XXSP,2013-02-16 10:34:00,
2013-02-16 05:39:00,16.7,12.1,30.53,SSE,157,0.0,0.0,82,0.00,,,0.00,WUHU21623XXSP,2013-02-16 10:39:00,
2013-02-16 05:44:00,16.9,12.3,30.53,SSE,157,0.0,0.0,82,0.00,,,0.00,WUHU21623XXSP,2013-02-16 10:44:00,
2013-02-16 05:49:00,16.9,12.3,30.53,SSE,157,0.0,0.0,82,0.00,,,0.00,WUHU21623XXSP,2013-02-16 10:49:00,
2013-02-16 05:54:00,16.9,12.3,30.53,SSE,157,0.0,0.0,82,0.00,,,0.00,WUHU21623XXSP,2013-02-16 10:54:00,
2013-02-16 05:59:00,16.9,12.3,30.53,SSE,157,0.0,0.0,82,0.00,,,0.00,WUHU21623XXSP,2013-02-16 10:59:00,
2013-02-16 06:04:00,17.1,12.4,30.53,SSE,157,0.0,0.0,82,0.00,,,0.00,WUHU21623XXSP,2013-02-16 11:04:00,
2013-02-16 06:09:00,17.1,12.4,30.53,SSE,157,0.0,0.0,82,0.00,,,0.00,WUHU21623XXSP,2013-02-16 11:09:00,
2013-02-16 06:14:00,17.2,12.6,30.53,SSE,157,0.0,0.0,82,0.00,,,0.00,WUHU21623XXSP,2013-02-16 11:14:00,
2013-02-16 06:19:00,17.2,12.6,30.53,SSE,157,0.0,0.0,82,0.00,,,0.00,WUHU21623XXSP,2013-02-16 11:19:00,
2013-02-16 06:24:00,17.2,12.6,30.53,SSE,157,0.0,0.0,82,0.00,,,0.00,WUHU21623XXSP,2013-02-16 11:24:00,
2013-02-16 06:29:00,17.4,12.7,30.53,SSE,157,0.0,0.0,82,0.00,,,0.00,WUHU21623XXSP,2013-02-16 11:29:00,
2013-02-16 06:35:00,17.4,12.7,30.53,SSE,157,0.0,0.0,82,0.00,,,0.00,WUHU21623XXSP,2013-02-16 11:35:00,
2013-02-16 06:40:00,17.4,12.7,30.53,SSE,157,0.0,0.0,82,0.00,,,0.00,WUHU21623XXSP,2013-02-16 11:40:00,
2013-02-16 06:45:00,17.4,12.7,30.52,SSE,157,0.0,0.0,82,0.00,,,0.00,WUHU21623XXSP,2013-02-16 11:45:00,
2013-02-16 06:50:00,17.8,13.1,30.53,SSE,157,0.0,0.0,82,0.00,,,0.00,WUHU21623XXSP,2013-02-16 11:50:00,
2013-02-16 06:55:00,17.8,13.1,30.52,SSE,157,0.0,0.0,82,0.00,,,0.00,WUHU21623XXSP,2013-02-16 11:55:00,
2013-02-16 07:00:00,17.8,13.1,30.52,SSE,157,0.0,0.0,82,0.00,,,0.00,WUHU21623XXSP,2013-02-16 12:00:00,
2013-02-16 07:05:00,17.8,13.1,30.52,SSE,157,0.0,0.0,82,0.00,,,0.00,WUHU21623XXSP,2013-02-16 12:05:00,
2013-02-16 07:10:00,17.8,13.1,30.51,SSE,157,0.0,0.0,82,0.00,,,0.00,WUHU21623XXSP,2013-02-16 12:10:00,
2013-02-16 07:15:00,18.0,13.3,30.52,SSE,157,0.0,0.0,82,0.00,,,0.00,WUHU21623XXSP,2013-02-16 12:15:00,
2013-02-16 07:20:00,18.0,13.3,30.52,SSE,157,0.0,0.0,82,0.00,,,0.00,WUHU21623XXSP,2013-02-16 12:20:00,
2013-02-16 07:25:00,18.0,13.3,30.51,SSE,157,0.0,0.0,82,0.00,,,0.00,WUHU21623XXSP,2013-02-16 12:25:00,
2013-02-16 07:30:00,18.1,13.5,30.52,SSE,157,0.0,0.0,82,0.00,,,0.00,WUHU21623XXSP,2013-02-16 12:30:00,
2013-02-16 07:35:00,18.1,13.5,30.52,SSE,157,0.0,0.0,82,0.00,,,0.00,WUHU21623XXSP,2013-02-16 12:35:00,
2013-02-16 07:40:00,18.1,13.5,30.52,SSE,157,0.0,0.0,82,0.00,,,0.00,WUHU21623XXSP,2013-02-16 12:40:00,
2013-02-16 07:45:00,18.1,13.5,30.52,SSE,157,0.0,0.0,82,0.00,,,0.00,WUHU21623XXSP,2013-02-16 12:45:00,
2013-02-16 07:50:00,18.3,13.6,30.52,SSE,157,0.0,0.0,82,0.00,,,0.00,WUHU21623XXSP,2013-02-16 12:50:00,
2013-02-16 07:55:00,18.3,13.6,30.52,SSE,157,0.0,0.0,82,0.00,,,0.00,WUHU21623XXSP,2013-02-16 12:55:00,
2013-02-16 08:00:00,18.3,13.9,30.52,SSE,157,0.0,0.0,83,0.00,,,0.00,WUHU21623XXSP,2013-02-16 13:00:00,
2013-02-16 08:05:00,18.3,13.9,30.52,SSE,157,0.0,0.0,83,0.00,,,0.00,WUHU21623XXSP,2013-02-16 13:05:00,
2013-02-16 08:10:00,18.3,13.9,30.52,SSE,157,0.0,0.0,83,0.00,,,0.00,WUHU21623XXSP,2013-02-16 13:10:00,
2013-02-16 08:15:00,18.5,14.1,30.53,SSE,157,0.0,0.0,83,0.00,,,0.00,WUHU21623XXSP,2013-02-16 13:15:00,
2013-02-16 08:20:00,18.7,14.1,30.52,SSE,157,0.0,0.0,83,0.00,,,0.00,WUHU21623XXSP,2013-02-16 13:20:00,
2013-02-16 08:25:00,18.7,14.3,30.53,SSE,157,0.0,0.0,83,0.00,,,0.00,WUHU21623XXSP,2013-02-16 13:25:00,
2013-02-16 08:31:00,19.0,14.4,30.53,SSE,157,0.0,0.0,83,0.00,,,0.00,WUHU21623XXSP,2013-02-16 13:31:00,
2013-02-16 08:33:00,19.2,14.8,30.53,SSE,157,0.0,0.0,83,0.00,,,0.00,WUHU21623XXSP,2013-02-16 13:33:00,
2013-02-16 08:44:00,19.2,14.5,30.52,SSE,157,0.0,0.0,82,0.00,,,0.00,WUHU21623XXSP,2013-02-16 13:44:00,
2013-02-16 08:51:00,19.6,14.7,30.53,SE,135,0.0,0.0,82,0.00,,,0.00,WUHU21623XXSP,2013-02-16 13:51:00,
2013-02-16 09:00:00,19.6,14.9,30.52,SE,135,0.0,0.0,82,0.00,,,0.00,WUHU21623XXSP,2013-02-16 14:00:00,
2013-02-16 09:09:00,20.3,15.6,30.52,SSE,157,0.0,0.0,82,0.00,,,0.00,WUHU21623XXSP,2013-02-16 14:09:00,
2013-02-16 09:15:00,20.5,15.8,30.52,SE,135,0.0,0.0,82,0.00,,,0.00,WUHU21623XXSP,2013-02-16 14:15:00,
2013-02-16 09:20:00,20.7,16.0,30.52,SE,135,0.0,0.0,82,0.00,,,0.00,WUHU21623XXSP,2013-02-16 14:20:00,
2013-02-16 09:26:00,21.0,16.3,30.52,SE,135,0.0,0.0,82,0.00,,,0.00,WUHU21623XXSP,2013-02-16 14:26:00,
2013-02-16 09:31:00,21.0,16.3,30.52,SE,135,0.0,0.0,82,0.00,,,0.00,WUHU21623XXSP,2013-02-16 14:31:00,
2013-02-16 09:38:00,21.0,16.3,30.52,SE,135,0.0,0.0,82,0.00,,,0.00,WUHU21623XXSP,2013-02-16 14:38:00,
2013-02-16 09:44:00,21.0,16.3,30.52,SE,135,0.0,0.0,82,0.00,,,0.00,WUHU21623XXSP,2013-02-16 14:44:00,
2013-02-16 09:49:00,21.6,16.9,30.52,SSE,157,0.0,0.0,82,0.00,,,0.00,WUHU21623XXSP,2013-02-16 14:49:00,
2013-02-16 10:03:00,22.5,17.3,30.51,East,90,0.0,0.0,81,0.00,,,0.00,WUHU21623XXSP,2013-02-16 15:03:00,
2013-02-16 10:08:00,22.5,17.5,30.51,SSE,157,0.0,0.0,81,0.00,,,0.00,WUHU21623XXSP,2013-02-16 15:08:00,
2013-02-16 10:18:00,22.5,17.4,30.51,South,180,0.0,0.0,80,0.00,,,0.00,WUHU21623XXSP,2013-02-16 15:18:00,
2013-02-16 10:26:00,22.5,17.2,30.51,WSW,247,0.0,0.0,80,0.00,,,0.00,WUHU21623XXSP,2013-02-16 15:26:00,
2013-02-16 10:31:00,22.3,17.1,30.51,WSW,247,0.0,0.0,80,0.00,,,0.00,WUHU21623XXSP,2013-02-16 15:31:00,
2013-02-16 10:37:00,22.1,16.9,30.51,WSW,247,0.0,0.0,80,0.00,,,0.00,WUHU21623XXSP,2013-02-16 15:37:00,
2013-02-16 10:42:00,21.9,16.7,30.52,WSW,247,0.0,0.0,80,0.00,,,0.00,WUHU21623XXSP,2013-02-16 15:42:00,
2013-02-16 10:48:00,21.9,16.7,30.52,WSW,247,0.0,0.0,80,0.00,,,0.00,WUHU21623XXSP,2013-02-16 15:48:00,
2013-02-16 10:55:00,21.4,16.3,30.52,West,270,0.0,0.0,80,0.00,,,0.00,WUHU21623XXSP,2013-02-16 15:55:00,
2013-02-16 11:00:00,21.2,16.0,30.51,West,270,0.0,0.0,80,0.00,,,0.00,WUHU21623XXSP,2013-02-16 16:00:00,
2013-02-16 11:05:00,21.0,15.8,30.51,WNW,292,0.0,0.0,80,0.00,,,0.00,WUHU21623XXSP,2013-02-16 16:05:00,
2013-02-16 11:12:00,21.0,15.8,30.52,WNW,292,0.0,0.0,80,0.00,,,0.00,WUHU21623XXSP,2013-02-16 16:12:00,
2013-02-16 11:19:00,21.0,15.8,30.52,WNW,292,0.0,0.0,80,0.00,,,0.00,WUHU21623XXSP,2013-02-16 16:19:00,
2013-02-16 11:24:00,21.2,16.0,30.52,ESE,112,0.0,0.0,80,0.00,,,0.00,WUHU21623XXSP,2013-02-16 16:24:00,
2013-02-16 11:29:00,21.2,16.0,30.52,ESE,112,0.0,0.0,80,0.00,,,0.00,WUHU21623XXSP,2013-02-16 16:29:00,
2013-02-16 11:34:00,21.4,16.2,30.52,WSW,247,1.6,1.6,80,0.00,,,0.00,WUHU21623XXSP,2013-02-16 16:34:00,
2013-02-16 11:39:00,21.4,16.2,30.52,WSW,247,0.0,1.6,80,0.00,,,0.00,WUHU21623XXSP,2013-02-16 16:39:00,
2013-02-16 11:44:00,21.4,15.9,30.53,East,90,0.0,0.0,79,0.00,,,0.00,WUHU21623XXSP,2013-02-16 16:44:00,
2013-02-16 11:49:00,21.6,16.0,30.53,WSW,247,0.0,0.0,79,0.00,,,0.00,WUHU21623XXSP,2013-02-16 16:49:00,
2013-02-16 11:55:00,21.4,15.9,30.52,West,270,0.0,0.0,79,0.00,,,0.00,WUHU21623XXSP,2013-02-16 16:55:00,
2013-02-16 12:00:00,21.6,16.0,30.52,South,180,0.0,0.0,79,0.00,,,0.00,WUHU21623XXSP,2013-02-16 17:00:00,
2013-02-16 12:05:00,21.7,16.2,30.52,ESE,112,0.0,0.0,79,0.00,,,0.00,WUHU21623XXSP,2013-02-16 17:05:00,
2013-02-16 12:10:00,22.1,16.6,30.52,WSW,247,0.0,0.0,79,0.00,,,0.00,WUHU21623XXSP,2013-02-16 17:10:00,
2013-02-16 12:15:00,22.3,16.4,30.52,NNW,337,0.0,0.0,78,0.00,,,0.00,WUHU21623XXSP,2013-02-16 17:15:00,
2013-02-16 12:20:00,22.6,16.8,30.53,SW,225,0.0,0.0,77,0.00,,,0.00,WUHU21623XXSP,2013-02-16 17:20:00,
2013-02-16 12:26:00,22.8,16.7,30.52,WSW,247,0.0,0.0,77,0.00,,,0.00,WUHU21623XXSP,2013-02-16 17:26:00,
2013-02-16 12:31:00,23.4,17.2,30.52,SW,225,0.0,0.0,77,0.00,,,0.00,WUHU21623XXSP,2013-02-16 17:31:00,
2013-02-16 12:36:00,23.5,17.1,30.52,West,270,0.0,0.0,76,0.00,,,0.00,WUHU21623XXSP,2013-02-16 17:36:00,
2013-02-16 12:41:00,23.5,17.1,30.52,WNW,292,0.0,0.0,76,0.00,,,0.00,WUHU21623XXSP,2013-02-16 17:41:00,
2013-02-16 12:46:00,23.7,17.2,30.51,ESE,112,0.0,0.0,76,0.00,,,0.00,WUHU21623XXSP,2013-02-16 17:46:00,
2013-02-16 12:51:00,23.7,16.9,30.51,SSE,157,0.0,0.0,75,0.00,,,0.00,WUHU21623XXSP,2013-02-16 17:51:00,
2013-02-16 12:56:00,23.5,16.8,30.51,WSW,247,0.0,0.0,75,0.00,,,0.00,WUHU21623XXSP,2013-02-16 17:56:00,
2013-02-16 13:02:00,23.0,16.3,30.51,ESE,112,0.0,0.0,75,0.00,,,0.00,WUHU21623XXSP,2013-02-16 18:02:00,
2013-02-16 13:07:00,23.2,16.4,30.51,West,270,0.0,0.0,75,0.00,,,0.00,WUHU21623XXSP,2013-02-16 18:07:00,
2013-02-16 13:14:00,23.2,16.4,30.51,West,270,0.0,0.0,75,0.00,,,0.00,WUHU21623XXSP,2013-02-16 18:14:00,
2013-02-16 13:19:00,23.4,16.6,30.51,NE,45,0.0,0.0,75,0.00,,,0.00,WUHU21623XXSP,2013-02-16 18:19:00,
2013-02-16 13:21:00,23.5,16.4,30.51,ESE,112,0.0,0.0,74,0.00,,,0.00,WUHU21623XXSP,2013-02-16 18:21:00,
2013-02-16 13:32:00,23.7,16.6,30.50,West,270,0.0,0.0,74,0.00,,,0.00,WUHU21623XXSP,2013-02-16 18:32:00,
2013-02-16 13:37:00,24.1,17.0,30.51,ESE,112,0.0,0.0,74,0.00,,,0.00,WUHU21623XXSP,2013-02-16 18:37:00,
2013-02-16 13:42:00,24.1,17.0,30.51,ESE,112,0.0,0.0,74,0.00,,,0.00,WUHU21623XXSP,2013-02-16 18:42:00,
2013-02-16 13:47:00,25.0,17.5,30.50,SSE,157,0.0,0.0,73,0.00,,,0.00,WUHU21623XXSP,2013-02-16 18:47:00,
2013-02-16 13:52:00,25.3,17.8,30.50,SSE,157,0.0,0.0,73,0.00,,,0.00,WUHU21623XXSP,2013-02-16 18:52:00,
2013-02-16 13:57:00,25.5,17.7,30.50,ESE,112,0.0,0.0,72,0.00,,,0.00,WUHU21623XXSP,2013-02-16 18:57:00,
2013-02-16 14:02:00,25.5,17.7,30.50,ESE,112,0.0,0.0,72,0.00,,,0.00,WUHU21623XXSP,2013-02-16 19:02:00,
2013-02-16 14:07:00,25.5,17.7,30.50,ESE,112,0.0,0.0,72,0.00,,,0.00,WUHU21623XXSP,2013-02-16 19:07:00,
2013-02-16 14:12:00,25.3,17.2,30.50,SSE,157,0.0,0.0,71,0.00,,,0.00,WUHU21623XXSP,2013-02-16 19:12:00,
2013-02-16 14:17:00,25.3,17.2,30.50,West,270,2.0,2.0,71,0.00,,,0.00,WUHU21623XXSP,2013-02-16 19:17:00,
2013-02-16 14:22:00,25.3,17.2,30.49,SSE,157,0.0,2.0,71,0.00,,,0.00,WUHU21623XXSP,2013-02-16 19:22:00,
2013-02-16 14:27:00,25.2,17.0,30.50,ESE,112,0.0,1.3,71,0.00,,,0.00,WUHU21623XXSP,2013-02-16 19:27:00,
2013-02-16 14:32:00,25.3,17.2,30.50,West,270,0.0,0.0,71,0.00,,,0.00,WUHU21623XXSP,2013-02-16 19:32:00,
2013-02-16 14:37:00,25.0,16.5,30.49,ESE,112,0.0,0.0,70,0.00,,,0.00,WUHU21623XXSP,2013-02-16 19:37:00,
2013-02-16 14:42:00,24.6,16.5,30.49,West,270,0.0,0.0,71,0.00,,,0.00,WUHU21623XXSP,2013-02-16 19:42:00,
2013-02-16 14:47:00,24.3,16.2,30.50,SSE,157,0.0,0.0,71,0.00,,,0.00,WUHU21623XXSP,2013-02-16 19:47:00,
2013-02-16 14:52:00,24.1,16.0,30.50,ESE,112,0.0,0.0,71,0.00,,,0.00,WUHU21623XXSP,2013-02-16 19:52:00,
2013-02-16 14:57:00,24.1,16.0,30.49,WSW,247,0.0,0.0,71,0.00,,,0.00,WUHU21623XXSP,2013-02-16 19:57:00,
2013-02-16 15:03:00,24.1,16.0,30.50,WSW,247,0.0,0.0,71,0.00,,,0.00,WUHU21623XXSP,2013-02-16 20:03:00,
2013-02-16 15:08:00,24.1,16.0,30.50,NE,45,0.0,0.0,71,0.00,,,0.00,WUHU21623XXSP,2013-02-16 20:08:00,
2013-02-16 15:13:00,24.4,16.3,30.50,SE,135,0.0,0.0,71,0.00,,,0.00,WUHU21623XXSP,2013-02-16 20:13:00,
2013-02-16 15:18:00,24.6,16.2,30.50,East,90,0.0,0.0,70,0.00,,,0.00,WUHU21623XXSP,2013-02-16 20:18:00,
2013-02-16 15:23:00,24.4,16.0,30.50,East,90,0.0,0.0,70,0.00,,,0.00,WUHU21623XXSP,2013-02-16 20:23:00,
2013-02-16 15:28:00,24.3,15.5,30.50,ESE,112,0.0,0.0,69,0.00,,,0.00,WUHU21623XXSP,2013-02-16 20:28:00,
2013-02-16 15:33:00,24.1,15.7,30.50,SW,225,0.0,0.0,70,0.00,,,0.00,WUHU21623XXSP,2013-02-16 20:33:00,
2013-02-16 15:38:00,24.4,16.0,30.50,South,180,0.0,0.0,70,0.00,,,0.00,WUHU21623XXSP,2013-02-16 20:38:00,
2013-02-16 15:43:00,24.3,15.5,30.50,WSW,247,0.0,0.0,69,0.00,,,0.00,WUHU21623XXSP,2013-02-16 20:43:00,
2013-02-16 15:48:00,23.9,15.2,30.50,WSW,247,0.0,0.0,69,0.00,,,0.00,WUHU21623XXSP,2013-02-16 20:48:00,
2013-02-16 15:53:00,23.9,15.2,30.50,WSW,247,0.0,0.0,69,0.00,,,0.00,WUHU21623XXSP,2013-02-16 20:53:00,
2013-02-16 15:58:00,24.1,15.3,30.51,WSW,247,0.0,0.0,69,0.00,,,0.00,WUHU21623XXSP,2013-02-16 20:58:00,
2013-02-16 16:03:00,24.1,15.3,30.50,East,90,0.0,0.0,69,0.00,,,0.00,WUHU21623XXSP,2013-02-16 21:03:00,
2013-02-16 16:08:00,24.3,15.2,30.50,East,90,0.0,0.0,68,0.00,,,0.00,WUHU21623XXSP,2013-02-16 21:08:00,
2013-02-16 16:13:00,24.1,14.6,30.50,SW,225,0.0,0.0,67,0.00,,,0.00,WUHU21623XXSP,2013-02-16 21:13:00,
2013-02-16 16:18:00,24.1,14.6,30.51,West,270,0.0,0.0,67,0.00,,,0.00,WUHU21623XXSP,2013-02-16 21:18:00,
2013-02-16 16:23:00,24.1,14.6,30.51,East,90,0.0,0.0,67,0.00,,,0.00,WUHU21623XXSP,2013-02-16 21:23:00,
2013-02-16 16:28:00,24.1,14.6,30.51,West,270,0.0,0.7,67,0.00,,,0.00,WUHU21623XXSP,2013-02-16 21:28:00,
2013-02-16 16:33:00,24.1,15.0,30.51,NW,315,0.0,0.7,68,0.00,,,0.00,WUHU21623XXSP,2013-02-16 21:33:00,
2013-02-16 16:38:00,23.7,14.6,30.51,WSW,247,0.0,0.0,68,0.00,,,0.00,WUHU21623XXSP,2013-02-16 21:38:00,
2013-02-16 16:43:00,23.5,14.5,30.51,NNE,22,0.0,0.0,68,0.00,,,0.00,WUHU21623XXSP,2013-02-16 21:43:00,
2013-02-16 16:48:00,23.4,14.7,30.51,WNW,292,0.0,0.0,69,0.00,,,0.00,WUHU21623XXSP,2013-02-16 21:48:00,
2013-02-16 16:53:00,22.8,14.5,30.51,West,270,0.0,0.0,70,0.00,,,0.00,WUHU21623XXSP,2013-02-16 21:53:00,
2013-02-16 16:58:00,22.3,14.0,30.51,West,270,0.0,0.0,70,0.00,,,0.00,WUHU21623XXSP,2013-02-16 21:58:00,
2013-02-16 17:03:00,21.9,13.9,30.51,West,270,0.0,0.0,71,0.00,,,0.00,WUHU21623XXSP,2013-02-16 22:03:00,
2013-02-16 17:08:00,21.4,13.7,30.51,West,270,0.0,0.0,72,0.00,,,0.00,WUHU21623XXSP,2013-02-16 22:08:00,
2013-02-16 17:13:00,21.0,13.4,30.52,West,270,0.0,0.0,72,0.00,,,0.00,WUHU21623XXSP,2013-02-16 22:13:00,
2013-02-16 17:18:00,21.0,13.4,30.51,West,270,0.0,0.0,72,0.00,,,0.00,WUHU21623XXSP,2013-02-16 22:18:00,
2013-02-16 17:23:00,20.8,13.5,30.52,West,270,0.0,0.0,73,0.00,,,0.00,WUHU21623XXSP,2013-02-16 22:23:00,
2013-02-16 17:28:00,20.5,13.1,30.52,West,270,0.0,0.0,73,0.00,,,0.00,WUHU21623XXSP,2013-02-16 22:28:00,
2013-02-16 17:33:00,20.5,13.1,30.53,West,270,0.0,0.0,73,0.00,,,0.00,WUHU21623XXSP,2013-02-16 22:33:00,
2013-02-16 17:38:00,20.8,13.5,30.53,West,270,0.0,0.0,73,0.00,,,0.00,WUHU21623XXSP,2013-02-16 22:38:00,
2013-02-16 17:43:00,21.0,13.7,30.53,South,180,0.0,0.0,73,0.00,,,0.00,WUHU21623XXSP,2013-02-16 22:43:00,
2013-02-16 17:48:00,21.4,13.7,30.53,South,180,0.0,0.0,73,0.00,,,0.00,WUHU21623XXSP,2013-02-16 22:48:00,
2013-02-16 17:53:00,21.0,14.0,30.53,WSW,247,0.0,0.0,74,0.00,,,0.00,WUHU21623XXSP,2013-02-16 22:53:00,
2013-02-16 17:58:00,21.0,14.0,30.53,SW,225,0.0,0.0,74,0.00,,,0.00,WUHU21623XXSP,2013-02-16 22:58:00,
2013-02-16 18:03:00,20.8,14.1,30.53,SW,225,0.0,0.0,75,0.00,,,0.00,WUHU21623XXSP,2013-02-16 23:03:00,
2013-02-16 18:08:00,20.5,13.7,30.53,SW,225,0.0,0.0,75,0.00,,,0.00,WUHU21623XXSP,2013-02-16 23:08:00,
2013-02-16 18:13:00,20.1,13.4,30.53,SW,225,0.0,0.0,75,0.00,,,0.00,WUHU21623XXSP,2013-02-16 23:13:00,
2013-02-16 18:18:00,19.6,13.0,30.53,SW,225,0.0,0.0,75,0.00,,,0.00,WUHU21623XXSP,2013-02-16 23:18:00,
2013-02-16 18:23:00,19.2,12.5,30.54,SW,225,0.0,0.0,75,0.00,,,0.00,WUHU21623XXSP,2013-02-16 23:23:00,
2013-02-16 18:28:00,18.5,11.8,30.54,SW,225,0.0,0.0,75,0.00,,,0.00,WUHU21623XXSP,2013-02-16 23:28:00,
2013-02-16 18:34:00,18.0,11.6,30.54,SW,225,0.0,0.0,76,0.00,,,0.00,WUHU21623XXSP,2013-02-16 23:34:00,
2013-02-16 18:39:00,17.8,11.4,30.54,SW,225,0.0,0.0,76,0.00,,,0.00,WUHU21623XXSP,2013-02-16 23:39:00,
2013-02-16 18:44:00,17.4,11.0,30.54,SW,225,0.0,0.0,76,0.00,,,0.00,WUHU21623XXSP,2013-02-16 23:44:00,
2013-02-16 18:49:00,16.9,10.5,30.55,SW,225,0.0,0.0,76,0.00,,,0.00,WUHU21623XXSP,2013-02-16 23:49:00,
2013-02-16 18:54:00,16.5,10.2,30.55,SW,225,0.0,0.0,76,0.00,,,0.00,WUHU21623XXSP,2013-02-16 23:54:00,
2013-02-16 18:59:00,16.3,10.3,30.55,SW,225,0.0,0.0,77,0.00,,,0.00,WUHU21623XXSP,2013-02-16 23:59:00,
2013-02-16 19:04:00,16.0,10.0,30.55,SW,225,0.0,0.0,77,0.00,,,0.00,WUHU21623XXSP,2013-02-17 00:04:00,
2013-02-16 19:09:00,16.0,10.0,30.55,SW,225,0.0,0.0,77,0.00,,,0.00,WUHU21623XXSP,2013-02-17 00:09:00,
2013-02-16 19:15:00,15.6,10.0,30.55,SW,225,0.0,0.0,78,0.00,,,0.00,WUHU21623XXSP,2013-02-17 00:15:00,
2013-02-16 19:20:00,15.6,10.0,30.56,SW,225,0.0,0.0,78,0.00,,,0.00,WUHU21623XXSP,2013-02-17 00:20:00,
2013-02-16 19:25:00,15.3,9.6,30.56,SW,225,0.0,0.0,78,0.00,,,0.00,WUHU21623XXSP,2013-02-17 00:25:00,
2013-02-16 19:30:00,15.1,9.4,30.55,SW,225,0.0,0.0,78,0.00,,,0.00,WUHU21623XXSP,2013-02-17 00:30:00,
2013-02-16 19:36:00,14.7,9.3,30.56,SW,225,0.0,0.0,78,0.00,,,0.00,WUHU21623XXSP,2013-02-17 00:36:00,
2013-02-16 19:41:00,14.7,9.1,30.56,SW,225,0.0,0.0,78,0.00,,,0.00,WUHU21623XXSP,2013-02-17 00:41:00,
2013-02-16 19:46:00,14.5,8.9,30.56,SW,225,0.0,0.0,78,0.00,,,0.00,WUHU21623XXSP,2013-02-17 00:46:00,
2013-02-16 19:51:00,14.2,8.5,30.56,SW,225,0.0,0.0,78,0.00,,,0.00,WUHU21623XXSP,2013-02-17 00:51:00,
2013-02-16 19:56:00,14.0,8.4,30.56,SW,225,0.0,0.0,78,0.00,,,0.00,WUHU21623XXSP,2013-02-17 00:56:00,
2013-02-16 20:09:00,13.6,8.3,30.56,SW,225,0.0,0.0,79,0.00,,,0.00,WUHU21623XXSP,2013-02-17 01:09:00,
2013-02-16 20:14:00,13.3,8.0,30.56,SW,225,0.0,0.0,79,0.00,,,0.00,WUHU21623XXSP,2013-02-17 01:14:00,
2013-02-16 20:19:00,13.1,8.0,30.57,SW,225,0.0,0.0,79,0.00,,,0.00,WUHU21623XXSP,2013-02-17 01:19:00,
2013-02-16 20:25:00,13.1,7.8,30.57,SW,225,0.0,0.0,79,0.00,,,0.00,WUHU21623XXSP,2013-02-17 01:25:00,
2013-02-16 20:30:00,13.1,8.1,30.56,SW,225,0.0,0.0,80,0.00,,,0.00,WUHU21623XXSP,2013-02-17 01:30:00,
2013-02-16 20:35:00,13.1,8.1,30.57,SW,225,0.0,0.0,80,0.00,,,0.00,WUHU21623XXSP,2013-02-17 01:35:00,
2013-02-16 20:42:00,13.3,8.2,30.56,SW,225,0.0,0.0,80,0.00,,,0.00,WUHU21623XXSP,2013-02-17 01:42:00,
2013-02-16 20:47:00,13.6,8.6,30.56,SW,225,0.0,0.0,80,0.00,,,0.00,WUHU21623XXSP,2013-02-17 01:47:00,
2013-02-16 20:53:00,13.6,8.6,30.56,SW,225,0.0,0.0,80,0.00,,,0.00,WUHU21623XXSP,2013-02-17 01:53:00,
2013-02-16 21:00:00,13.3,8.2,30.56,SW,225,0.0,0.0,80,0.00,,,0.00,WUHU21623XXSP,2013-02-17 02:00:00,
2013-02-16 21:09:00,13.3,8.2,30.56,SW,225,0.0,0.0,80,0.00,,,0.00,WUHU21623XXSP,2013-02-17 02:09:00,
2013-02-16 21:10:00,13.3,8.2,30.56,SW,225,0.0,0.0,80,0.00,,,0.00,WUHU21623XXSP,2013-02-17 02:10:00,
2013-02-16 21:16:00,13.1,8.2,30.57,SW,225,0.0,0.0,80,0.00,,,0.00,WUHU21623XXSP,2013-02-17 02:16:00,
2013-02-16 21:20:00,13.1,8.1,30.56,SW,225,0.0,0.0,80,0.00,,,0.00,WUHU21623XXSP,2013-02-17 02:20:00,
2013-02-16 21:25:00,13.1,8.1,30.57,SW,225,0.0,0.0,80,0.00,,,0.00,WUHU21623XXSP,2013-02-17 02:25:00,
2013-02-16 21:31:00,13.3,8.2,30.57,SW,225,0.0,0.0,80,0.00,,,0.00,WUHU21623XXSP,2013-02-17 02:31:00,
2013-02-16 21:35:00,13.3,8.2,30.57,SW,225,0.0,0.0,80,0.00,,,0.00,WUHU21623XXSP,2013-02-17 02:35:00,
2013-02-16 21:42:00,13.6,8.9,30.57,SW,225,0.0,0.0,81,0.00,,,0.00,WUHU21623XXSP,2013-02-17 02:42:00,
2013-02-16 21:46:00,13.8,9.1,30.57,SW,225,0.0,0.0,81,0.00,,,0.00,WUHU21623XXSP,2013-02-17 02:46:00,
2013-02-16 21:50:00,14.2,9.4,30.58,SW,225,0.0,0.0,81,0.00,,,0.00,WUHU21623XXSP,2013-02-17 02:50:00,
2013-02-16 21:57:00,14.4,9.6,30.57,SW,225,0.0,0.0,81,0.00,,,0.00,WUHU21623XXSP,2013-02-17 02:57:00,
2013-02-16 22:01:00,14.5,10.0,30.58,SW,225,0.0,0.0,82,0.00,,,0.00,WUHU21623XXSP,2013-02-17 03:01:00,
2013-02-16 22:05:00,14.5,10.0,30.59,SW,225,0.0,0.0,82,0.00,,,0.00,WUHU21623XXSP,2013-02-17 03:05:00,
2013-02-16 22:12:00,14.4,9.8,30.58,SW,225,0.0,0.0,82,0.00,,,0.00,WUHU21623XXSP,2013-02-17 03:12:00,
2013-02-16 22:16:00,14.2,9.7,30.58,SW,225,0.0,0.0,82,0.00,,,0.00,WUHU21623XXSP,2013-02-17 03:16:00,
2013-02-16 22:22:00,13.8,9.3,30.58,WSW,247,0.0,0.0,82,0.00,,,0.00,WUHU21623XXSP,2013-02-17 03:22:00,
2013-02-16 22:27:00,13.8,9.3,30.58,WSW,247,0.0,0.0,82,0.00,,,0.00,WUHU21623XXSP,2013-02-17 03:27:00,
2013-02-16 22:31:00,13.6,9.1,30.59,SW,225,0.0,0.0,82,0.00,,,0.00,WUHU21623XXSP,2013-02-17 03:31:00,
2013-02-16 22:35:00,13.6,9.1,30.59,SW,225,0.0,0.0,82,0.00,,,0.00,WUHU21623XXSP,2013-02-17 03:35:00,
2013-02-16 22:37:00,13.8,9.6,30.58,SW,225,0.0,0.0,83,0.00,,,0.00,WUHU21623XXSP,2013-02-17 03:37:00,
2013-02-16 22:41:00,13.8,9.6,30.59,SW,225,0.0,0.0,83,0.00,,,0.00,WUHU21623XXSP,2013-02-17 03:41:00,
2013-02-16 22:42:00,13.8,9.6,30.59,WSW,247,0.0,0.0,83,0.00,,,0.00,WUHU21623XXSP,2013-02-17 03:42:00,
2013-02-16 22:48:00,13.8,9.6,30.59,WSW,247,0.0,0.0,83,0.00,,,0.00,WUHU21623XXSP,2013-02-17 03:48:00,
2013-02-16 22:52:00,13.8,9.6,30.59,WSW,247,0.0,0.0,83,0.00,,,0.00,WUHU21623XXSP,2013-02-17 03:52:00,
2013-02-16 22:59:00,13.3,8.8,30.59,WSW,247,0.0,0.0,82,0.00,,,0.00,WUHU21623XXSP,2013-02-17 03:59:00,
2013-02-16 23:03:00,13.1,8.6,30.59,WSW,247,0.0,0.0,82,0.00,,,0.00,WUHU21623XXSP,2013-02-17 04:03:00,
2013-02-16 23:10:00,12.7,8.2,30.59,WSW,247,0.0,0.0,82,0.00,,,0.00,WUHU21623XXSP,2013-02-17 04:10:00,
2013-02-16 23:14:00,12.7,8.2,30.59,WSW,247,0.0,0.0,82,0.00,,,0.00,WUHU21623XXSP,2013-02-17 04:14:00,
2013-02-16 23:20:00,12.6,8.1,30.59,WSW,247,0.0,0.0,82,0.00,,,0.00,WUHU21623XXSP,2013-02-17 04:20:00,
2013-02-16 23:25:00,12.6,8.1,30.59,WSW,247,0.0,0.0,82,0.00,,,0.00,WUHU21623XXSP,2013-02-17 04:25:00,
2013-02-16 23:29:00,12.4,7.9,30.59,WSW,247,0.0,0.0,82,0.00,,,0.00,WUHU21623XXSP,2013-02-17 04:29:00,
2013-02-16 23:35:00,12.0,7.5,30.59,WSW,247,0.0,0.0,82,0.00,,,0.00,WUHU21623XXSP,2013-02-17 04:35:00,
2013-02-16 23:40:00,12.0,7.5,30.59,WSW,247,0.0,0.0,82,0.00,,,0.00,WUHU21623XXSP,2013-02-17 04:40:00,
2013-02-16 23:44:00,11.8,7.3,30.59,West,270,0.0,0.0,82,0.00,,,0.00,WUHU21623XXSP,2013-02-17 04:44:00,
2013-02-16 23:50:00,11.3,7.0,30.59,West,270,0.0,0.0,82,0.00,,,0.00,WUHU21623XXSP,2013-02-17 04:50:00,
2013-02-16 23:56:00,11.1,6.6,30.59,SW,225,0.0,0.0,82,0.00,,,0.00,WUHU21623XXSP,2013-02-17 04:56:00,
2013-02-16 23:57:00,11.1,6.6,30.59,SW,225,0.0,0.0,82,0.00,,,0.00,WUHU21623XXSP,2013-02-17 04:57:00,